Location: Carri�res
(48.9069°N, 2.1792°E)
Time: 13:49:33
(UTC+00:00)

SJ 16-02 - Pass Details

Date: 17 January 2021
Orbit: 607 x 615 km, 75.0° (Epoch: 26 February)

Event Time Altitude Azimuth Distance (km) Brightness Sun altitude
Rises 18:04:41 0° 161° (SSE) 2,867 4.7 -15.9°
Reaches altitude 10° 18:07:23 10° 144° (SE) 1,967 3.7 -16.3°
Enters shadow 18:08:41 15° 130° (SE) 1,637 3.2 -16.5°
